Tracking 29892 objects as of 21-Nov-2024
HD Live streaming from Space Station
objects crossing your sky now

FENGYUN 1C DEB

Track FENGYUN 1C DEB now!
10-day predictions


NORAD ID: 29845
Int'l Code: 1999-025EP
Perigee: 759.5 km
Apogee: 872.9 km
Inclination: 98.5 °
Period: 101.1 minutes
Semi major axis: 7187 km
RCS: 0.047 m2 (small)
Launch date: May 10, 1999
Source: People's Republic of China (PRC)
Launch site: Taiyaun Space Center, China (TSC)

Note: This is SATELLITE DEBRIS
Your satellite tracking list
Your tracking list is empty




NASA's NSSDC Master Catalog

Two Line Element Set (TLE):
1 29845U 99025EP  24325.48631598  .00001706  00000-0  72515-3 0  9990
2 29845  98.5189 330.6241 0078910 183.3063 339.4987 14.24839737925915
Source of the keplerian elements: AFSPC